ONEWEB-0028 (45140 NORAD) Tracking and Keplerian Element Data

This shows tracking and keplerian element data for the satellite.

Feedback or suggestion? Click here.




ElementValue
Catalog45140
NameONEWEB-0028
Epoch Orbit850
Epoch Day93.53827295
Epoch Year2020
RAAN145.4218
Inclination87.5516
Eccentricity0.0022125
Argument of Perigee88.0049
Mean Anonmoly272.3716
Mean Motion14.9654916
Decay Rate-0.00209188
L11 45140U 20008K 20093.53827295 -.00209188 00000-0 -18872-1 0 9996
L22 45140 87.5516 145.4218 0022125 88.0049 272.3716 14.96549160 8500

Live tracking and technical data element details for ONEWEB-0028 (NORAD 45140). ONEWEB-0028 can be tracked NOW for your location showing map with azimuth and elevation plus other details from your city location.

Track the satellite on the map from your city or location and see movement details for azimuth, elevation, latitude, longitude, range, height, and movement on the map or in text.







IsCatalogInMostPopularTable: catalog: 45140, numindb: 15
Update: records affected: 1



GetName: 45140 ONEWEB-0028

Hit Count: updated at: Mon, 06 Apr 2020 11:38:34 GMT